Henderson, KY

6:05 AM CDT on July 16, 2019 (GMT -0500)
Henderson City-County

Weather History for KEHR - May, 2019

Change the Weather History Date:

Monday, May 27, 2019

  Actual Average Record
Temperature  
Mean Temperature 78 °F -  
Max Temperature 88 °F 78 °F 95 °F (2012)
Min Temperature 69 °F 57 °F 34 °F (1961)
Cooling Degree Days 14    
Growing Degree Days 28 (Base 50)    
Moisture  
Dew Point 69 °F    
Average Humidity 75    
Maximum Humidity 100    
Minimum Humidity 48    
Precipitation  
Precipitation 0.00 in - - ()
Sea Level Pressure  
Sea Level Pressure 29.93 in    
Wind  
Wind Speed 5 mph (SSW)    
Max Wind Speed 21 mph    
Max Gust Speed 25 mph    
Visibility 9 miles    
Events      
Averages and records for this station are not official NWS values.
T = Trace of Precipitation, MM = Missing Value Source: NWS Daily Summary

Daily Weather History Graph

Daily Weather History Graph

Search for Another Location

Airport or City:

Astronomy

May. 27, 2019 Rise Set
Actual Time 5:32 AM CDT 8:03 PM CDT
Civil Twilight 5:02 AM CDT 8:33 PM CDT
Nautical Twilight 4:24 AM CDT 9:11 PM CDT
Astronomical Twilight 3:43 AM CDT 9:53 PM CDT
Moon 2:07 AM CDT (5/27) 1:24 PM CDT (5/27)
Length of Visible Light 15h 31m
Length of Day
14h 30m
Last Quarter, 40% of the Moon is Illuminated
May 27
Last Quarter
Jun 3
New
Jun 10
First Quarter
Jun 17
Full
Jun 25
Last Quarter

Hourly Weather History & Observations

Time (CDT) Temp. Heat Index Dew Point Humidity Pressure Visibility Wind Dir Wind Speed Gust Speed Precip Events Conditions
12:56 AM 70.0 °F - 68.0 °F 93% 30.02 in 10.0 mi Calm Calm - N/A   Clear
1:56 AM 69.1 °F - 68.0 °F 96% 30.02 in 9.0 mi Calm Calm - N/A   Clear
2:56 AM 70.0 °F - 68.0 °F 93% 30.01 in 9.0 mi Calm Calm - N/A   Clear
3:56 AM 69.1 °F - 68.0 °F 96% 30.01 in 7.0 mi Calm Calm - N/A   Clear
4:56 AM 69.1 °F - 68.0 °F 96% 30.01 in 5.0 mi East 3.5 mph - N/A   Partly Cloudy
5:56 AM 69.1 °F - 69.1 °F 100% 30.02 in 8.0 mi Calm Calm - N/A   Clear
6:56 AM 71.1 °F - 69.1 °F 93% 30.02 in 6.0 mi Calm Calm - N/A   Clear
7:56 AM 73.0 °F - 71.1 °F 93% 30.02 in 9.0 mi Calm Calm - N/A   Clear
8:48 AM 75.2 °F - 71.6 °F 89% 30.02 in 10.0 mi SSE 4.6 mph - N/A   Partly Cloudy
8:56 AM 75.9 °F - 72.0 °F 87% 30.01 in 10.0 mi SSE 5.8 mph - N/A   Partly Cloudy
9:56 AM 80.1 °F 83.8 °F 72.0 °F 76% 29.99 in 10.0 mi SSW 6.9 mph - N/A   Clear
10:56 AM 81.0 °F 84.4 °F 70.0 °F 69% 29.98 in 10.0 mi SSW 8.1 mph - N/A   Clear
11:56 AM 82.9 °F 87.0 °F 70.0 °F 65% 29.97 in 10.0 mi SW 12.7 mph - N/A   Clear
12:56 PM 84.9 °F 89.4 °F 70.0 °F 61% 29.95 in 10.0 mi SW 16.1 mph 20.7 mph N/A   Partly Cloudy
1:56 PM 86.0 °F 90.7 °F 70.0 °F 59% 29.92 in 10.0 mi SW 15.0 mph - N/A   Scattered Clouds
2:56 PM 87.1 °F 90.6 °F 68.0 °F 53% 29.89 in 10.0 mi SSW 15.0 mph 23.0 mph N/A   Partly Cloudy
3:56 PM 87.1 °F 89.9 °F 66.9 °F 51% 29.87 in 10.0 mi SW 20.7 mph 25.3 mph N/A   Partly Cloudy
4:56 PM 88.0 °F 90.3 °F 66.0 °F 48% 29.85 in 10.0 mi SW 16.1 mph 23.0 mph N/A   Clear
5:56 PM 84.9 °F 87.1 °F 66.0 °F 53% 29.83 in 10.0 mi SSW 13.8 mph - N/A   Clear
6:56 PM 84.0 °F 87.0 °F 68.0 °F 58% 29.82 in 10.0 mi SSW 10.4 mph - N/A   Clear
7:56 PM 81.0 °F 83.8 °F 68.0 °F 65% 29.82 in 10.0 mi South 5.8 mph - N/A   Clear
8:56 PM 79.0 °F - 69.1 °F 72% 29.81 in 10.0 mi South 4.6 mph - N/A   Clear
9:56 PM 79.0 °F - 69.1 °F 72% 29.82 in 10.0 mi South 9.2 mph - N/A   Clear
10:56 PM 78.1 °F - 68.0 °F 71% 29.83 in 10.0 mi SSW 8.1 mph - N/A   Clear
11:56 PM 77.0 °F - 66.9 °F 71% 29.83 in 10.0 mi SSW 10.4 mph - N/A   Clear